Location: Newark
(51.3318°N, 0.0053°E)
Time: 20:41:03
(UTC+00:00)

LO-87 - Pass Details

Date: 30 June 2022
Orbit: 451 x 466 km, 97.4° (Epoch: 11 August)

Event Time Altitude Azimuth Distance (km) Brightness Sun altitude
Exits shadow 00:26:07 16° 242° (WSW) 1,305 ? -15.3°
Maximum altitude 00:27:18 18° 268° (W) 1,201 ? -15.3°
Drops below altitude 10° 00:29:47 10° 314° (NW) 1,625 ? -15.3°
Sets 00:32:20 0° 333° (NNW) 2,512 ? -15.2°
